Tracking 30685 objects as of 17-Jun-2025
HD Live streaming from Space Station
objects crossing your sky now

STARLINK-34009

Track STARLINK-34009 now!
10-day predictions
STARLINK-34009 is classified as:


NORAD ID: 63849
Int'l Code: 2025-093P
Perigee: 450.4 km
Apogee: 452.2 km
Inclination: 43.0 °
Period: 93.5 minutes
Semi major axis: 6822 km
RCS: Unknown
Launch date: May 7, 2025
Source: United States (US)
Launch site: AIR FORCE EASTERN TEST RANGE (AFETR)
Your satellite tracking list
Your tracking list is empty




NASA's NSSDC Master Catalog

Two Line Element Set (TLE):
1 63849U 25093P   25168.25002315  .00034387  00000-0  82761-3 0  9991
2 63849  43.0003 137.2446 0001320 268.7271  80.5340 15.40668074  7365
Source of the keplerian elements: AFSPC